data;timeIndex;Autorizzati;Non autorizzati;areac
2012-01-01;00:00;232;683;0
2012-01-01;00:30;344;1479;0
2012-01-01;01:00;353;2004;0
2012-01-01;01:30;400;2075;0
2012-01-01;02:00;414;1981;0
2012-01-01;02:30;433;1520;0
2012-01-01;03:00;435;1251;0
2012-01-01;03:30;409;1018;0
2012-01-01;04:00;359;869;0
2012-01-01;04:30;356;611;0
2012-01-01;05:00;329;529;0
2012-01-01;05:30;284;544;0
2012-01-01;06:00;240;471;0
2012-01-01;06:30;198;580;0
2012-01-01;07:00;162;337;0
2012-01-01;07:30;158;387;0
2012-01-01;08:00;147;348;0
2012-01-01;08:30;151;450;0
2012-01-01;09:00;155;538;0
2012-01-01;09:30;173;712;0
2012-01-01;10:00;211;945;0
2012-01-01;10:30;242;1278;0
2012-01-01;11:00;253;1458;0
2012-01-01;11:30;278;1600;0
2012-01-01;12:00;249;1761;0
2012-01-01;12:30;292;1575;0
2012-01-01;13:00;234;1410;0
2012-01-01;13:30;196;1237;0
2012-01-01;14:00;209;1270;0
2012-01-01;14:30;224;1514;0
2012-01-01;15:00;262;1949;0
2012-01-01;15:30;286;2322;0
2012-01-01;16:00;314;2628;0
2012-01-01;16:30;342;2741;0
2012-01-01;17:00;303;2599;0
2012-01-01;17:30;366;2573;0
2012-01-01;18:00;329;2334;0
2012-01-01;18:30;318;2135;0
2012-01-01;19:00;300;2023;0
2012-01-01;19:30;298;1735;0
2012-01-01;20:00;316;1470;0
2012-01-01;20:30;260;1296;0
2012-01-01;21:00;296;1122;0
2012-01-01;21:30;212;1009;0
2012-01-01;22:00;248;1131;0
2012-01-01;22:30;215;898;0
2012-01-01;23:00;225;801;0
2012-01-01;23:30;218;695;0
2012-01-02;00:00;178;550;0
2012-01-02;00:30;125;351;0
2012-01-02;01:00;109;286;0
2012-01-02;01:30;63;211;0
2012-01-02;02:00;50;146;0
2012-01-02;02:30;39;121;0
2012-01-02;03:00;42;116;0
2012-01-02;03:30;53;107;0
2012-01-02;04:00;38;144;0
2012-01-02;04:30;59;254;0
2012-01-02;05:00;103;371;0
2012-01-02;05:30;124;575;0
2012-01-02;06:00;162;864;0
2012-01-02;06:30;248;1586;0
2012-01-02;07:00;289;2112;0
2012-01-02;07:30;380;2000;0
2012-01-02;08:00;404;2384;0
2012-01-02;08:30;426;2531;0
2012-01-02;09:00;468;2381;0
2012-01-02;09:30;474;2463;0
2012-01-02;10:00;499;2371;0
2012-01-02;10:30;442;2458;0
2012-01-02;11:00;493;2489;0
2012-01-02;11:30;530;2377;0
2012-01-02;12:00;465;2319;0
2012-01-02;12:30;418;2211;0
2012-01-02;13:00;430;1966;0
2012-01-02;13:30;397;1966;0
2012-01-02;14:00;447;2171;0
2012-01-02;14:30;492;2549;0
2012-01-02;15:00;465;2591;0
2012-01-02;15:30;514;2595;0
2012-01-02;16:00;477;2564;0
2012-01-02;16:30;515;2483;0
2012-01-02;17:00;481;2531;0
2012-01-02;17:30;484;2732;0
2012-01-02;18:00;534;2745;0
2012-01-02;18:30;501;2435;0
2012-01-02;19:00;470;2232;0
2012-01-02;19:30;437;2323;0
2012-01-02;20:00;465;1837;0
2012-01-02;20:30;381;1444;0
2012-01-02;21:00;315;1178;0
2012-01-02;21:30;330;1035;0
2012-01-02;22:00;281;1008;0
2012-01-02;22:30;292;890;0
2012-01-02;23:00;238;850;0
2012-01-02;23:30;240;691;0
2012-01-03;00:00;223;631;0
2012-01-03;00:30;176;428;0
2012-01-03;01:00;140;343;0
2012-01-03;01:30;91;263;0
2012-01-03;02:00;73;180;0
2012-01-03;02:30;57;144;0
2012-01-03;03:00;55;127;0
2012-01-03;03:30;51;125;0
2012-01-03;04:00;32;151;0
2012-01-03;04:30;62;270;0
2012-01-03;05:00;96;410;0
2012-01-03;05:30;138;624;0
2012-01-03;06:00;195;905;0
2012-01-03;06:30;255;1777;0
2012-01-03;07:00;319;2549;0
2012-01-03;07:30;394;2518;0
2012-01-03;08:00;455;2976;0
2012-01-03;08:30;567;3528;0
2012-01-03;09:00;649;3460;0
2012-01-03;09:30;631;3405;0
2012-01-03;10:00;617;3209;0
2012-01-03;10:30;605;3126;0
2012-01-03;11:00;658;3146;0
2012-01-03;11:30;606;3004;0
2012-01-03;12:00;520;2744;0
2012-01-03;12:30;499;2566;0
2012-01-03;13:00;473;2294;0
2012-01-03;13:30;481;2227;0
2012-01-03;14:00;490;2399;0
2012-01-03;14:30;508;2889;0
2012-01-03;15:00;596;2807;0
2012-01-03;15:30;566;2846;0
2012-01-03;16:00;531;2836;0
2012-01-03;16:30;536;2694;0
2012-01-03;17:00;549;2760;0
2012-01-03;17:30;566;3020;0
2012-01-03;18:00;533;2939;0
2012-01-03;18:30;472;2923;0
2012-01-03;19:00;455;2633;0
2012-01-03;19:30;453;2598;0
2012-01-03;20:00;465;2257;0
2012-01-03;20:30;358;1667;0
2012-01-03;21:00;352;1325;0
2012-01-03;21:30;302;1271;0
2012-01-03;22:00;305;1274;0
2012-01-03;22:30;276;1121;0
2012-01-03;23:00;276;1088;0
2012-01-03;23:30;261;1013;0
2012-01-04;00:00;234;781;0
2012-01-04;00:30;189;578;0
2012-01-04;01:00;135;389;0
2012-01-04;01:30;101;363;0
2012-01-04;02:00;100;240;0
2012-01-04;02:30;65;164;0
2012-01-04;03:00;56;123;0
2012-01-04;03:30;47;136;0
2012-01-04;04:00;43;157;0
2012-01-04;04:30;63;236;0
2012-01-04;05:00;88;374;0
2012-01-04;05:30;137;569;0
2012-01-04;06:00;133;851;0
2012-01-04;06:30;230;1740;0
2012-01-04;07:00;311;2408;0
2012-01-04;07:30;395;2634;0
2012-01-04;08:00;479;3055;0
2012-01-04;08:30;583;3621;0
2012-01-04;09:00;652;3560;0
2012-01-04;09:30;662;3685;0
2012-01-04;10:00;661;3315;0
2012-01-04;10:30;642;3305;0
2012-01-04;11:00;684;3311;0
2012-01-04;11:30;585;2986;0
2012-01-04;12:00;577;2843;0
2012-01-04;12:30;496;2745;0
2012-01-04;13:00;473;2466;0
2012-01-04;13:30;482;2366;0
2012-01-04;14:00;531;2577;0
2012-01-04;14:30;563;2959;0
2012-01-04;15:00;579;2978;0
2012-01-04;15:30;620;2931;0
2012-01-04;16:00;579;2933;0
2012-01-04;16:30;606;2778;0
2012-01-04;17:00;604;2924;0
2012-01-04;17:30;585;3158;0
2012-01-04;18:00;532;3152;0
2012-01-04;18:30;503;3163;0
2012-01-04;19:00;528;2895;0
2012-01-04;19:30;525;3211;0
2012-01-04;20:00;441;2494;0
2012-01-04;20:30;386;1866;0
2012-01-04;21:00;387;1534;0
2012-01-04;21:30;323;1435;0
2012-01-04;22:00;303;1466;0
2012-01-04;22:30;311;1311;0
2012-01-04;23:00;272;1244;0
2012-01-04;23:30;365;1194;0
2012-01-05;00:00;250;900;0
2012-01-05;00:30;241;742;0
2012-01-05;01:00;168;495;0
2012-01-05;01:30;120;373;0
2012-01-05;02:00;103;256;0
2012-01-05;02:30;85;201;0
2012-01-05;03:00;62;144;0
2012-01-05;03:30;51;129;0
2012-01-05;04:00;54;160;0
2012-01-05;04:30;55;278;0
2012-01-05;05:00;109;400;0
2012-01-05;05:30;116;611;0
2012-01-05;06:00;168;876;0
2012-01-05;06:30;208;1750;0
2012-01-05;07:00;290;2395;0
2012-01-05;07:30;414;2584;0
2012-01-05;08:00;468;2993;0
2012-01-05;08:30;571;3676;0
2012-01-05;09:00;664;3755;0
2012-01-05;09:30;691;4110;0
2012-01-05;10:00;754;4084;0
2012-01-05;10:30;647;3940;0
2012-01-05;11:00;676;3780;0
2012-01-05;11:30;619;3614;0
2012-01-05;12:00;606;3076;0
2012-01-05;12:30;536;3131;0
2012-01-05;13:00;563;2734;0
2012-01-05;13:30;573;2571;0
2012-01-05;14:00;574;2765;0
2012-01-05;14:30;613;3299;0
2012-01-05;15:00;615;3389;0
2012-01-05;15:30;640;3334;0
2012-01-05;16:00;602;3324;0
2012-01-05;16:30;668;3381;0
2012-01-05;17:00;633;3389;0
2012-01-05;17:30;634;3564;0
2012-01-05;18:00;624;3486;0
2012-01-05;18:30;534;3215;0
2012-01-05;19:00;550;2939;0
2012-01-05;19:30;556;3177;0
2012-01-05;20:00;545;2813;0
2012-01-05;20:30;479;2266;0
2012-01-05;21:00;411;1751;0
2012-01-05;21:30;351;1562;0
2012-01-05;22:00;371;1591;0
2012-01-05;22:30;321;1618;0
2012-01-05;23:00;293;1584;0
2012-01-05;23:30;329;1613;0
2012-01-06;00:00;288;1361;0
2012-01-06;00:30;264;1157;0
2012-01-06;01:00;192;888;0
2012-01-06;01:30;151;700;0
2012-01-06;02:00;129;492;0
2012-01-06;02:30;124;407;0
2012-01-06;03:00;116;296;0
2012-01-06;03:30;105;279;0
2012-01-06;04:00;98;277;0
2012-01-06;04:30;119;256;0
2012-01-06;05:00;103;334;0
2012-01-06;05:30;144;342;0
2012-01-06;06:00;123;418;0
2012-01-06;06:30;146;681;0
2012-01-06;07:00;180;508;0
2012-01-06;07:30;206;644;0
2012-01-06;08:00;178;713;0
2012-01-06;08:30;248;984;0
2012-01-06;09:00;273;1376;0
2012-01-06;09:30;371;2004;0
2012-01-06;10:00;373;2535;0
2012-01-06;10:30;417;2862;0
2012-01-06;11:00;428;3150;0
2012-01-06;11:30;430;2918;0
2012-01-06;12:00;374;2879;0
2012-01-06;12:30;427;2789;0
2012-01-06;13:00;369;2306;0
2012-01-06;13:30;321;2086;0
2012-01-06;14:00;329;2165;0
2012-01-06;14:30;374;2786;0
2012-01-06;15:00;437;3423;0
2012-01-06;15:30;445;3714;0
2012-01-06;16:00;461;3716;0
2012-01-06;16:30;492;3589;0
2012-01-06;17:00;444;3422;0
2012-01-06;17:30;451;3267;0
2012-01-06;18:00;440;3154;0
2012-01-06;18:30;406;2872;0
2012-01-06;19:00;454;2799;0
2012-01-06;19:30;499;2929;0
2012-01-06;20:00;453;2612;0
2012-01-06;20:30;413;2039;0
2012-01-06;21:00;374;1749;0
2012-01-06;21:30;321;1652;0
2012-01-06;22:00;322;1692;0
2012-01-06;22:30;302;1710;0
2012-01-06;23:00;291;1837;0
2012-01-06;23:30;315;1836;0
2012-01-07;00:00;279;1507;0
2012-01-07;00:30;224;1273;0
2012-01-07;01:00;211;1012;0
2012-01-07;01:30;187;763;0
2012-01-07;02:00;167;605;0
2012-01-07;02:30;173;508;0
2012-01-07;03:00;128;346;0
2012-01-07;03:30;143;295;0
2012-01-07;04:00;125;262;0
2012-01-07;04:30;106;315;0
2012-01-07;05:00;134;293;0
2012-01-07;05:30;112;450;0
2012-01-07;06:00;127;537;0
2012-01-07;06:30;146;874;0
2012-01-07;07:00;199;772;0
2012-01-07;07:30;203;1008;0
2012-01-07;08:00;223;1193;0
2012-01-07;08:30;260;1414;0
2012-01-07;09:00;361;1862;0
2012-01-07;09:30;408;2623;0
2012-01-07;10:00;467;2984;0
2012-01-07;10:30;474;3369;0
2012-01-07;11:00;507;3573;0
2012-01-07;11:30;516;3531;0
2012-01-07;12:00;468;3427;0
2012-01-07;12:30;433;3156;0
2012-01-07;13:00;417;2875;0
2012-01-07;13:30;360;2626;0
2012-01-07;14:00;463;2821;0
2012-01-07;14:30;423;3391;0
2012-01-07;15:00;456;3641;0
2012-01-07;15:30;497;3983;0
2012-01-07;16:00;472;3981;0
2012-01-07;16:30;520;4097;0
2012-01-07;17:00;527;3904;0
2012-01-07;17:30;510;3660;0
2012-01-07;18:00;542;3499;0
2012-01-07;18:30;459;3278;0
2012-01-07;19:00;524;3243;0
2012-01-07;19:30;508;3307;0
2012-01-07;20:00;512;3026;0
2012-01-07;20:30;443;2550;0
2012-01-07;21:00;357;2043;0
2012-01-07;21:30;372;1915;0
2012-01-07;22:00;349;1960;0
2012-01-07;22:30;355;2291;0
2012-01-07;23:00;358;2535;0
2012-01-07;23:30;361;2460;0
2012-01-08;00:00;349;2145;0
2012-01-08;00:30;323;1726;0
2012-01-08;01:00;277;1298;0
2012-01-08;01:30;243;1137;0
2012-01-08;02:00;210;879;0
2012-01-08;02:30;197;640;0
2012-01-08;03:00;176;485;0
2012-01-08;03:30;144;359;0
2012-01-08;04:00;140;320;0
2012-01-08;04:30;134;271;0
2012-01-08;05:00;153;273;0
2012-01-08;05:30;132;269;0
2012-01-08;06:00;122;391;0
2012-01-08;06:30;133;637;0
2012-01-08;07:00;164;448;0
2012-01-08;07:30;203;573;0
2012-01-08;08:00;166;674;0
2012-01-08;08:30;250;880;0
2012-01-08;09:00;258;1324;0
2012-01-08;09:30;357;2033;0
2012-01-08;10:00;340;2519;0
2012-01-08;10:30;410;2867;0
2012-01-08;11:00;401;2975;0
2012-01-08;11:30;418;3049;0
2012-01-08;12:00;388;3157;0
2012-01-08;12:30;391;2993;0
2012-01-08;13:00;366;2602;0
2012-01-08;13:30;331;2373;0
2012-01-08;14:00;366;2570;0
2012-01-08;14:30;421;3230;0
2012-01-08;15:00;469;3792;0
2012-01-08;15:30;452;3992;0
2012-01-08;16:00;421;4048;0
2012-01-08;16:30;484;3961;0
2012-01-08;17:00;549;4110;0
2012-01-08;17:30;540;4056;0
2012-01-08;18:00;546;3823;0
2012-01-08;18:30;551;3481;0
2012-01-08;19:00;531;3561;0
2012-01-08;19:30;548;3185;0
2012-01-08;20:00;517;2617;0
2012-01-08;20:30;450;2055;0
2012-01-08;21:00;442;1588;0
2012-01-08;21:30;407;1584;0
2012-01-08;22:00;442;1597;0
2012-01-08;22:30;360;1489;0
2012-01-08;23:00;362;1329;0
2012-01-08;23:30;282;1052;0
2012-01-09;00:00;323;803;0
2012-01-09;00:30;221;651;0
2012-01-09;01:00;169;406;0
2012-01-09;01:30;102;271;0
2012-01-09;02:00;75;192;0
2012-01-09;02:30;64;149;0
2012-01-09;03:00;69;118;0
2012-01-09;03:30;57;129;0
2012-01-09;04:00;55;165;0
2012-01-09;04:30;95;267;0
2012-01-09;05:00;136;440;0
2012-01-09;05:30;221;689;0
2012-01-09;06:00;269;1102;0
2012-01-09;06:30;406;2359;0
2012-01-09;07:00;545;3603;0
2012-01-09;07:30;782;5250;0
2012-01-09;08:00;850;5702;0
2012-01-09;08:30;950;5465;0
2012-01-09;09:00;983;4847;0
2012-01-09;09:30;941;4242;0
2012-01-09;10:00;900;3789;0
2012-01-09;10:30;900;3754;0
2012-01-09;11:00;910;3384;0
2012-01-09;11:30;904;3404;0
2012-01-09;12:00;755;3126;0
2012-01-09;12:30;731;3153;0
2012-01-09;13:00;732;3103;0
2012-01-09;13:30;788;3071;0
2012-01-09;14:00;768;3453;0
2012-01-09;14:30;811;3737;0
2012-01-09;15:00;845;3814;0
2012-01-09;15:30;886;3729;0
2012-01-09;16:00;829;3601;0
2012-01-09;16:30;920;3450;0
2012-01-09;17:00;856;3540;0
2012-01-09;17:30;864;3753;0
2012-01-09;18:00;760;3941;0
2012-01-09;18:30;768;4028;0
2012-01-09;19:00;745;3862;0
2012-01-09;19:30;700;3927;0
2012-01-09;20:00;641;3111;0
2012-01-09;20:30;565;2365;0
2012-01-09;21:00;477;1654;0
2012-01-09;21:30;441;1463;0
2012-01-09;22:00;412;1291;0
2012-01-09;22:30;434;1346;0
2012-01-09;23:00;407;1151;0
2012-01-09;23:30;355;973;0
2012-01-10;00:00;286;786;0
2012-01-10;00:30;252;574;0
2012-01-10;01:00;175;416;0
2012-01-10;01:30;101;266;0
2012-01-10;02:00;86;186;0
2012-01-10;02:30;73;144;0
2012-01-10;03:00;51;132;0
2012-01-10;03:30;63;123;0
2012-01-10;04:00;60;161;0
2012-01-10;04:30;75;270;0
2012-01-10;05:00;106;436;0
2012-01-10;05:30;233;709;0
2012-01-10;06:00;232;1080;0
2012-01-10;06:30;434;2357;0
2012-01-10;07:00;530;3595;0
2012-01-10;07:30;796;5095;0
2012-01-10;08:00;884;5631;0
2012-01-10;08:30;978;5528;0
2012-01-10;09:00;1085;5461;0
2012-01-10;09:30;1069;5028;0
2012-01-10;10:00;1016;4709;0
2012-01-10;10:30;1038;4424;0
2012-01-10;11:00;978;4096;0
2012-01-10;11:30;952;3927;0
2012-01-10;12:00;918;3622;0
2012-01-10;12:30;884;3562;0
2012-01-10;13:00;824;3449;0
2012-01-10;13:30;805;3453;0
2012-01-10;14:00;864;3623;0
2012-01-10;14:30;902;3910;0
2012-01-10;15:00;928;3844;0
2012-01-10;15:30;1035;3964;0
2012-01-10;16:00;933;4042;0
2012-01-10;16:30;988;3748;0
2012-01-10;17:00;921;3727;0
2012-01-10;17:30;995;3933;0
2012-01-10;18:00;854;3960;0
2012-01-10;18:30;785;4060;0
2012-01-10;19:00;781;3941;0
2012-01-10;19:30;786;4235;0
2012-01-10;20:00;763;3600;0
2012-01-10;20:30;710;2732;0
2012-01-10;21:00;684;1982;0
2012-01-10;21:30;530;1682;0
2012-01-10;22:00;472;1547;0
2012-01-10;22:30;451;1577;0
2012-01-10;23:00;482;1435;0
2012-01-10;23:30;416;1334;0
2012-01-11;00:00;403;1059;0
2012-01-11;00:30;275;810;0
2012-01-11;01:00;198;498;0
2012-01-11;01:30;125;368;0
2012-01-11;02:00;129;251;0
2012-01-11;02:30;82;146;0
2012-01-11;03:00;68;157;0
2012-01-11;03:30;82;147;0
2012-01-11;04:00;73;189;0
2012-01-11;04:30;76;268;0
2012-01-11;05:00;128;403;0
2012-01-11;05:30;195;661;0
2012-01-11;06:00;251;1092;0
2012-01-11;06:30;393;2349;0
2012-01-11;07:00;584;3580;0
2012-01-11;07:30;779;5256;0
2012-01-11;08:00;810;5440;0
2012-01-11;08:30;939;5306;0
2012-01-11;09:00;1048;5322;0
2012-01-11;09:30;1119;5137;0
2012-01-11;10:00;1044;4723;0
2012-01-11;10:30;1033;4617;0
2012-01-11;11:00;1026;4379;0
2012-01-11;11:30;950;3991;0
2012-01-11;12:00;958;3736;0
2012-01-11;12:30;890;3795;0
2012-01-11;13:00;892;3673;0
2012-01-11;13:30;829;3569;0
2012-01-11;14:00;862;3689;0
2012-01-11;14:30;937;4027;0
2012-01-11;15:00;1000;4096;0
2012-01-11;15:30;997;3945;0
2012-01-11;16:00;934;3985;0
2012-01-11;16:30;1003;3720;0
2012-01-11;17:00;952;3819;0
2012-01-11;17:30;897;3926;0
2012-01-11;18:00;853;4103;0
2012-01-11;18:30;835;4278;0
2012-01-11;19:00;825;4262;0
2012-01-11;19:30;861;4532;0
2012-01-11;20:00;912;4121;0
2012-01-11;20:30;718;3133;0
2012-01-11;21:00;644;2246;0
2012-01-11;21:30;582;1762;0
2012-01-11;22:00;494;1733;0
2012-01-11;22:30;503;1660;0
2012-01-11;23:00;528;1707;0
2012-01-11;23:30;498;1561;0
2012-01-12;00:00;441;1172;0
2012-01-12;00:30;338;891;0
2012-01-12;01:00;218;611;0
2012-01-12;01:30;208;408;0
2012-01-12;02:00;157;270;0
2012-01-12;02:30;145;167;0
2012-01-12;03:00;107;161;0
2012-01-12;03:30;101;173;0
2012-01-12;04:00;93;199;0
2012-01-12;04:30;91;299;0
2012-01-12;05:00;130;442;0
2012-01-12;05:30;181;731;0
2012-01-12;06:00;231;1066;0
2012-01-12;06:30;393;2254;0
2012-01-12;07:00;508;3564;0
2012-01-12;07:30;787;5089;0
2012-01-12;08:00;858;5721;0
2012-01-12;08:30;1007;5371;0
2012-01-12;09:00;1143;5434;0
2012-01-12;09:30;1152;5120;0
2012-01-12;10:00;1092;4785;0
2012-01-12;10:30;1065;4540;0
2012-01-12;11:00;1070;4317;0
2012-01-12;11:30;975;4091;0
2012-01-12;12:00;1002;3903;0
2012-01-12;12:30;923;3955;0
2012-01-12;13:00;876;3663;0
2012-01-12;13:30;875;3638;0
2012-01-12;14:00;912;3935;0
2012-01-12;14:30;1008;4239;0
2012-01-12;15:00;978;4195;0
2012-01-12;15:30;1041;4137;0
2012-01-12;16:00;1005;4225;0
2012-01-12;16:30;1041;3986;0
2012-01-12;17:00;971;3859;0
2012-01-12;17:30;960;3970;0
2012-01-12;18:00;891;4256;0
2012-01-12;18:30;858;4373;0
2012-01-12;19:00;855;4346;0
2012-01-12;19:30;772;4556;0
2012-01-12;20:00;768;4316;0
2012-01-12;20:30;758;3376;0
2012-01-12;21:00;572;2451;0
2012-01-12;21:30;460;1899;0
2012-01-12;22:00;444;1840;0
2012-01-12;22:30;444;1866;0
2012-01-12;23:00;425;2026;0
2012-01-12;23:30;395;1739;0
2012-01-13;00:00;353;1354;0
2012-01-13;00:30;324;1083;0
2012-01-13;01:00;226;745;0
2012-01-13;01:30;167;471;0
2012-01-13;02:00;117;377;0
2012-01-13;02:30;95;275;0
2012-01-13;03:00;63;218;0
2012-01-13;03:30;72;204;0
2012-01-13;04:00;84;227;0
2012-01-13;04:30;60;314;0
2012-01-13;05:00;119;492;0
2012-01-13;05:30;169;718;0
2012-01-13;06:00;185;1100;0
2012-01-13;06:30;266;2377;0
2012-01-13;07:00;390;3475;0
2012-01-13;07:30;581;5255;0
2012-01-13;08:00;554;5781;0
2012-01-13;08:30;541;5448;0
2012-01-13;09:00;576;5497;0
2012-01-13;09:30;553;5302;0
2012-01-13;10:00;546;5014;0
2012-01-13;10:30;508;4740;0
2012-01-13;11:00;471;4444;0
2012-01-13;11:30;423;4399;0
2012-01-13;12:00;393;4243;0
2012-01-13;12:30;407;4039;0
2012-01-13;13:00;396;3914;0
2012-01-13;13:30;334;3786;0
2012-01-13;14:00;370;4018;0
2012-01-13;14:30;444;4377;0
2012-01-13;15:00;443;4306;0
2012-01-13;15:30;421;4344;0
2012-01-13;16:00;441;4410;0
2012-01-13;16:30;426;4229;0
2012-01-13;17:00;433;4213;0
2012-01-13;17:30;434;4275;0
2012-01-13;18:00;395;4364;0
2012-01-13;18:30;361;4438;0
2012-01-13;19:00;295;4327;0
2012-01-13;19:30;282;4566;0
2012-01-13;20:00;264;4341;0
2012-01-13;20:30;249;3870;0
2012-01-13;21:00;226;3133;0
2012-01-13;21:30;184;2574;0
2012-01-13;22:00;189;2578;0
2012-01-13;22:30;187;2520;0
2012-01-13;23:00;178;2764;0
2012-01-13;23:30;196;2631;0
2012-01-14;00:00;147;2569;0
2012-01-14;00:30;152;2183;0
2012-01-14;01:00;115;1594;0
2012-01-14;01:30;98;1267;0
2012-01-14;02:00;85;949;0
2012-01-14;02:30;77;743;0
2012-01-14;03:00;85;711;0
2012-01-14;03:30;60;505;0
2012-01-14;04:00;59;506;0
2012-01-14;04:30;62;485;0
2012-01-14;05:00;84;557;0
2012-01-14;05:30;87;608;0
2012-01-14;06:00;128;722;0
2012-01-14;06:30;150;1232;0
2012-01-14;07:00;183;1352;0
2012-01-14;07:30;255;2341;0
2012-01-14;08:00;236;2455;0
2012-01-14;08:30;324;2727;0
2012-01-14;09:00;398;3149;0
2012-01-14;09:30;413;3940;0
2012-01-14;10:00;399;4159;0
2012-01-14;10:30;385;4516;0
2012-01-14;11:00;407;4681;0
2012-01-14;11:30;446;4582;0
2012-01-14;12:00;413;4596;0
2012-01-14;12:30;445;4582;0
2012-01-14;13:00;486;3889;0
2012-01-14;13:30;438;3447;0
2012-01-14;14:00;448;3286;0
2012-01-14;14:30;538;3847;0
2012-01-14;15:00;555;4183;0
2012-01-14;15:30;524;4503;0
2012-01-14;16:00;563;4557;0
2012-01-14;16:30;624;4646;0
2012-01-14;17:00;633;4535;0
2012-01-14;17:30;628;4328;0
2012-01-14;18:00;614;4440;0
2012-01-14;18:30;642;4230;0
2012-01-14;19:00;748;4287;0
2012-01-14;19:30;696;4477;0
2012-01-14;20:00;717;4772;0
2012-01-14;20:30;623;4109;0
2012-01-14;21:00;692;3353;0
2012-01-14;21:30;611;2769;0
2012-01-14;22:00;483;2576;0
2012-01-14;22:30;506;2747;0
2012-01-14;23:00;518;2998;0
2012-01-14;23:30;601;3147;0
2012-01-15;00:00;675;3271;0
2012-01-15;00:30;614;2853;0
2012-01-15;01:00;552;2221;0
2012-01-15;01:30;516;1562;0
2012-01-15;02:00;377;1197;0
2012-01-15;02:30;314;879;0
2012-01-15;03:00;253;670;0
2012-01-15;03:30;211;539;0
2012-01-15;04:00;208;505;0
2012-01-15;04:30;220;420;0
2012-01-15;05:00;219;404;0
2012-01-15;05:30;197;373;0
2012-01-15;06:00;168;444;0
2012-01-15;06:30;169;685;0
2012-01-15;07:00;180;498;0
2012-01-15;07:30;243;747;0
2012-01-15;08:00;270;815;0
2012-01-15;08:30;385;1184;0
2012-01-15;09:00;464;1485;0
2012-01-15;09:30;598;2286;0
2012-01-15;10:00;596;2808;0
2012-01-15;10:30;577;3309;0
2012-01-15;11:00;631;3413;0
2012-01-15;11:30;670;3597;0
2012-01-15;12:00;545;3390;0
2012-01-15;12:30;465;3276;0
2012-01-15;13:00;431;2715;0
2012-01-15;13:30;415;2299;0
2012-01-15;14:00;392;2349;0
2012-01-15;14:30;529;3030;0
2012-01-15;15:00;530;3519;0
2012-01-15;15:30;531;3630;0
2012-01-15;16:00;540;3736;0
2012-01-15;16:30;531;3660;0
2012-01-15;17:00;540;3880;0
2012-01-15;17:30;630;3782;0
2012-01-15;18:00;588;3797;0
2012-01-15;18:30;622;3834;0
2012-01-15;19:00;531;3718;0
2012-01-15;19:30;509;3575;0
2012-01-15;20:00;523;3158;0
2012-01-15;20:30;498;2160;0
2012-01-15;21:00;415;1379;0
2012-01-15;21:30;378;1258;0
2012-01-15;22:00;349;1226;0
2012-01-15;22:30;313;1541;0
2012-01-15;23:00;446;2327;0
2012-01-15;23:30;444;1763;0
2012-01-16;00:00;469;1268;0
2012-01-16;00:30;370;788;0
2012-01-16;01:00;256;451;0
2012-01-16;01:30;207;315;0
2012-01-16;02:00;161;218;0
2012-01-16;02:30;129;167;0
2012-01-16;03:00;127;146;0
2012-01-16;03:30;75;134;0
2012-01-16;04:00;86;174;0
2012-01-16;04:30;110;276;0
2012-01-16;05:00;191;466;0
2012-01-16;05:30;299;732;0
2012-01-16;06:00;387;1058;0
2012-01-16;06:30;535;2275;0
2012-01-16;07:00;730;4106;0
2012-01-16;07:30;893;2316;1
2012-01-16;08:00;1023;2813;1
2012-01-16;08:30;1172;2874;1
2012-01-16;09:00;1413;2960;1
2012-01-16;09:30;1387;2927;1
2012-01-16;10:00;1382;2720;1
2012-01-16;10:30;1334;2544;1
2012-01-16;11:00;1351;2310;1
2012-01-16;11:30;1245;2195;1
2012-01-16;12:00;1173;2074;1
2012-01-16;12:30;1035;1977;1
2012-01-16;13:00;1128;1925;1
2012-01-16;13:30;976;1969;1
2012-01-16;14:00;1061;1977;1
2012-01-16;14:30;1111;2375;1
2012-01-16;15:00;1168;2149;1
2012-01-16;15:30;1103;2278;1
2012-01-16;16:00;1162;2188;1
2012-01-16;16:30;1225;2116;1
2012-01-16;17:00;1161;2033;1
2012-01-16;17:30;1245;1979;1
2012-01-16;18:00;1143;1885;1
2012-01-16;18:30;1093;1860;1
2012-01-16;19:00;1033;1535;1
2012-01-16;19:30;1002;5476;0
2012-01-16;20:00;1000;3664;0
2012-01-16;20:30;882;2772;0
2012-01-16;21:00;769;1875;0
2012-01-16;21:30;614;1504;0
2012-01-16;22:00;576;1367;0
2012-01-16;22:30;580;1421;0
2012-01-16;23:00;609;1300;0
2012-01-16;23:30;473;1075;0
2012-01-17;00:00;427;841;0
2012-01-17;00:30;312;578;0
2012-01-17;01:00;187;369;0
2012-01-17;01:30;145;288;0
2012-01-17;02:00;144;182;0
2012-01-17;02:30;83;144;0
2012-01-17;03:00;78;118;0
2012-01-17;03:30;66;139;0
2012-01-17;04:00;51;154;0
2012-01-17;04:30;88;234;0
2012-01-17;05:00;144;446;0
2012-01-17;05:30;254;671;0
2012-01-17;06:00;335;1011;0
2012-01-17;06:30;515;2267;0
2012-01-17;07:00;671;3884;0
2012-01-17;07:30;881;2197;1
2012-01-17;08:00;973;2601;1
2012-01-17;08:30;1174;2914;1
2012-01-17;09:00;1444;3130;1
2012-01-17;09:30;1489;3036;1
2012-01-17;10:00;1354;2863;1
2012-01-17;10:30;1332;2631;1
2012-01-17;11:00;1274;2541;1
2012-01-17;11:30;1243;2311;1
2012-01-17;12:00;1209;2195;1
2012-01-17;12:30;1181;2116;1
2012-01-17;13:00;1126;2020;1
2012-01-17;13:30;1022;2017;1
2012-01-17;14:00;1111;2151;1
2012-01-17;14:30;1218;2397;1
2012-01-17;15:00;1119;2253;1
2012-01-17;15:30;1203;2348;1
2012-01-17;16:00;1134;2267;1
2012-01-17;16:30;1101;2167;1
2012-01-17;17:00;1169;2024;1
2012-01-17;17:30;1201;2027;1
2012-01-17;18:00;1140;2034;1
2012-01-17;18:30;1015;2041;1
2012-01-17;19:00;981;1761;1
2012-01-17;19:30;1049;5764;0
2012-01-17;20:00;956;4087;0
2012-01-17;20:30;927;3132;0
2012-01-17;21:00;732;2154;0
2012-01-17;21:30;475;1638;0
2012-01-17;22:00;352;1594;0
2012-01-17;22:30;318;1616;0
2012-01-17;23:00;299;1763;0
2012-01-17;23:30;214;1514;0
2012-01-18;00:00;184;1270;0
2012-01-18;00:30;136;955;0
2012-01-18;01:00;129;587;0
2012-01-18;01:30;85;366;0
2012-01-18;02:00;52;266;0
2012-01-18;02:30;50;202;0
2012-01-18;03:00;39;168;0
2012-01-18;03:30;47;152;0
2012-01-18;04:00;38;182;0
2012-01-18;04:30;50;257;0
2012-01-18;05:00;93;437;0
2012-01-18;05:30;146;684;0
2012-01-18;06:00;203;1009;0
2012-01-18;06:30;340;2309;0
2012-01-18;07:00;516;4097;0
2012-01-18;07:30;611;2248;1
2012-01-18;08:00;643;2772;1